Weather Roundup
Issued by NWS Springfield, MO

Current Version | Previous Version | Text Only | Print | Product List | Glossary On
Versions: 1 2 3 4 5 6 7 8 9 10 11 12 13 14 15 16 17 18 19 20 21 22 23 24 25 26 27 28 29 30 31 32 33 34 35 36 37 38 39 40 41 42 43 44 45 46 47 48 49 50
000
NZUS99 KSGF 021310
HRRSGF

HOURLY WEATHER
NATIONAL WEATHER SERVICE SPRINGFIELD MO
800 AM CDT WED SEP 02 2015

......SGF CWA......

CITY           SKY/WX    TMP DP  RH WIND       PRES   REMARKS
SPRINGFIELD    MOSUNNY   72  65  78 S10       30.11R
JOPLIN         SUNNY     72  67  84 S9        30.09R
WEST PLAINS    SUNNY     70  67  90 CALM      30.16R FOG
ROLLA          SUNNY     74  68  81 S9        30.11R
OSAGE BEACH    SUNNY     72  66  83 S3        30.10S
BRANSON        PTSUNNY   70  66  88 SE5       30.14R

......SURROUNDING SGF CWA......

CITY           SKY/WX    TMP DP  RH WIND       PRES   REMARKS
CHANUTE        SUNNY     71  67  87 S9        30.05R
PARSONS        SUNNY     70  68  93 S5        30.06R
COFFEYVILLE    SUNNY     70  67  90 S7        30.05R
EMPORIA        MOSUNNY   71  65  81 S12       30.01R
GROVE OK       SUNNY     73  70  88 S3        30.09R
ROGERS AR      SUNNY     71  66  84 SE7       30.14R
SILOAM SPRINGS SUNNY     70  63  78 SE6       30.10S
HARRISON AR    SUNNY     67  65  93 SE5       30.14R
NEAR YELLVILLE SUNNY     66  61  82 CALM      30.11R

......KANSAS AND MISSOURI......

CITY           SKY/WX    TMP DP  RH WIND       PRES   REMARKS
KANSAS CTY INT CLOUDY    76  65  68 NE5       30.06R
DOWNTOWN KC    PTSUNNY   75  66  73 S7        30.04R
COLUMBIA       MOSUNNY   71  69  93 S7        30.10R
SEDALIA        MOSUNNY   72  66  81 S8        30.10R
ST JOSEPH      LGT RAIN  71  69  93 SE7       30.03R FOG
ST LOUIS       MOSUNNY   78  68  71 S5        30.11R
SPIRIT OF STL  SUNNY     75  71  87 VRB3      30.09S
KIRKSVILLE     CLOUDY    72  68  87 S5        30.09R FOG
WICHITA        PTSUNNY   73  64  73 S12       30.01R
TOPEKA         TSTM      73  68  84 S15G21    30.02R
OLATHE         PTSUNNY   71  66  84 S9        30.04R

......TENNESSEE......

CITY           SKY/WX    TMP DP  RH WIND       PRES   REMARKS
MEMPHIS        PTSUNNY   79  71  76 NE3       30.12R
NASHVILLE      CLOUDY    76  69  79 CALM      30.14S

......ARKANSAS.......

CITY           SKY/WX    TMP DP  RH WIND       PRES   REMARKS
FAYETTEVILLE   SUNNY     68  68 100 CALM      30.13R
FT SMITH       SUNNY     73  67  81 NE3       30.10R
LITTLE ROCK    PTSUNNY   74  71  91 NE3       30.10R

......OKLAHOMA.......

CITY           SKY/WX    TMP DP  RH WIND       PRES   REMARKS
TULSA          MOSUNNY   74  68  81 S10       30.05R
PONCA CITY     MOSUNNY   74  65  73 S7        30.03R
MCALESTER      SUNNY     74  69  85 S3        30.09R
OKLAHOMA CITY  SUNNY     69  67  93 S6        30.06R

......IOWA............

CITY           SKY/WX    TMP DP  RH WIND       PRES   REMARKS
DES MOINES     CLOUDY    72  67  84 SE10      30.00F
QUAD CITIES    MOSUNNY   74  68  81 CALM      30.06R

......ILLINOIS........

CITY           SKY/WX    TMP DP  RH WIND       PRES   REMARKS
QUINCY         SUNNY     73  70  90 S6        30.09R
CHICAGO        MOSUNNY   74  69  85 W6        30.06R



USA.gov is the U.S. government's official web portal to all federal, state and local government web resources and services.